Location: Unspecified
(0.0000°N, 0.0000°E)
Time: 04:40:33
(UTC+02:00)

Centaur D-1AR AC-41 - Visible Passes

Search period start: 24 April 2014 00:00
Search period end: 04 May 2014 00:00
Orbit: 625 x 36219 km, 21.3° (Epoch: 23 April)

Date Brightness Start Highest point End Pass type
(mag) Time Alt. Az. Time Alt. Az. Time Alt. Az.
25 Apr 7.1 05:28:49 44° W 15:14:15 85° NNE 15:34:17 10° ESE visible
26 Apr 7.1 03:04:36 65° E 03:04:36 65° E 12:58:49 10° E visible
27 Apr 8.2 00:40:23 11° E 00:40:23 11° E 00:41:36 10° E visible
27 Apr 10.5 04:43:23 10° ENE 08:34:55 29° ENE 10:05:57 10° E visible
29 Apr 6.4 06:39:50 16° W 16:37:15 73° SSW 16:48:36 10° SE visible
30 Apr 7.0 04:15:35 73° WNW 04:20:45 80° NNW 14:16:28 10° ESE visible
01 May 7.6 01:51:21 37° E 01:51:21 37° E 11:36:49 10° E visible
02 May 12.2 05:54:03 10° ENE 07:17:19 14° ENE 08:12:07 10° ENE visible
